A/2019 S4

Japanese version
Home page
Updated on December 24, 2019

---------------------------------------------------------------------

* Profile

Discovery Date September 17, 2019
Magnitude 20.3 mag
Discoverer Mt. Lemmon Survey

* Pictures

* Orbital Elements

Epoch 2020 Apr. 21.0 TT = JDT 2458960.5
T 2020 Apr. 7.95428 TT                                  Williams
q   3.4416297            (2000.0)            P               Q
z  +0.0041650      Peri.   71.35843     +0.17414534     -0.41761694
 +/-0.0000314      Node    63.16823     -0.12883817     -0.90749481
e   0.9856656      Incl.   92.02423     +0.97625516     -0.04526883
H   14.5
From 53 observations 2019 Sept. 17-Nov. 24, mean residual 0".3.

* Magnitudes Graph

        H = 14.5  G = 0.15

---------------------------------------------------------------------

The orbital elements are published on M.P.E.C. 2019-X94.
The magnitudes graphs are made with Comet for Windows.

---------------------------------------------------------------------

Copyright(C) Seiichi Yoshida (comet@aerith.net). All rights reserved.